Other Public Products
Issued by NWS Grand Forks, ND

Home | Current Version | Previous Version | Text Only | Print | Product List | Glossary Off
Versions: 1 2 3 4 5 6 7 8 9 10 11 12 13 14 15 16 17 18 19 20 21 22 23 24 25 26 27 28 29 30 31 32 33 34 35 36 37 38 39 40 41 42 43 44 45 46 47 48 49 50

000
FPUS83 KFGF 051710
OPUFGF
PRAIRIE TO PINES WEATHER ROUNDUP
NATIONAL WEATHER SERVICE EASTERN NORTH DAKOTA/GRAND FORKS ND
1200 PM CDT SUN JUL 05 2015

 **SATELLITE DATA USED TO AUGMENT SKY COVER AT AUTOMATED STATIONS**
 *****  WEATHER ACROSS EASTERN NORTH DAKOTA  *****

CITY           SKY/WX    TMP DP  RH WIND       PRES   REMARKS
GRAND FORKS    TSTM      67  66  97 NW10G28   29.82R FOG
GRAND FORKS AF TSTM      66  64  94 CALM      29.81S FOG
GRAND CITY NWS   N/A     66 N/A N/A NW12        N/A
BUXTON         NOT AVBL
DEVILS LAKE    CLOUDY    66  61  82 NE14      29.74F
FARGO          CLOUDY    84  69  60 SW16      29.74S
WAHPETON ARPT  MOSUNNY   81  64  57 S7        29.77S
$$

 *****  WEATHER ACROSS CENTRAL AND WESTERN NORTH DAKOTA  *****

CITY           SKY/WX    TMP DP  RH WIND       PRES   REMARKS
JAMESTOWN      CLOUDY    68  63  84 N10       29.79R
BISMARCK       LGT RAIN  68  64  87 E10       29.78F
MINOT          PTSUNNY   70  62  76 NW8       29.85R HAZE
MINOT AFB      CLOUDY    73  73  99 NW13      29.84R
GARRISON         N/A     71  62  73 N7        29.85R
WILLISTON      CLOUDY    74  56  53 N17G25    29.95R HAZE
DICKINSON      PTSUNNY   70  62  76 NW17G24   29.88R
HETTINGER      PTSUNNY   69  62  78 NE18      29.85R
$$

 *****  OTHER OBSERVATIONS NORTHEAST NORTH DAKOTA  *****

CITY           SKY/WX    TMP DP  RH WIND       PRES   REMARKS
WALHALLA       LGT RAIN  66  66 100 MISG      29.75F
LANGDON        CLOUDY    64  64 100 NE10      29.77F FOG
CAVALIER       TSTM      66  66 100 CALM      29.77S VSB 1
GRAFTON        TSTM      66  66 100 CALM      29.80R VSB 1
CANDO          FAIR      66  64  94 NE12      29.77F FOG
FORT TOTTEN    NOT AVBL
ROLLA          FAIR      66  66 100 N10       29.83R FOG
RUGBY          NOT AVBL
 ***** THE ABOVE OBSERVATIONS ARE NON NWS ARE NOT QUALITY
        CONTROLLED AND MAY MIS-REPORT RAIN FOR SNOW...
$$

 *****  OTHER OBSERVATIONS SOUTHEAST NORTH DAKOTA *****

CITY           SKY/WX    TMP DP  RH WIND       PRES   REMARKS
COOPERSTOWN    NOT AVBL
VALLEY CITY    CLOUDY    75  70  83 SW7       29.78R
OAKES            N/A     81  75  83 SW13G21   29.77R
GWINNER        FAIR      82  70  65 SW17G23   29.76R
SHEYENNE NWR     N/A     83  70  63 SW10      29.95S
BUFFALO        NOT AVBL
WYNDMERE       NOT AVBL
 ***** THE ABOVE OBSERVATIONS ARE NON NWS ARE NOT QUALITY
       CONTROLLED AND MAY MIS-REPORT RAIN FOR SNOW...
$$

  *****  WEATHER ACROSS NORTHERN MINNESOTA  *****

CITY           SKY/WX    TMP DP  RH WIND       PRES   REMARKS
FLAG ISLAND    LGT RAIN  70  64  83 CALM      29.76F
WARROAD        TSTM      66  63  88 NE8       29.76F
ROSEAU         TSTM      68  63  83 CALM      29.78S
HALLOCK        TSTM      66  64  94 E6        29.76F
THF RVR FALLS  CLOUDY    72  66  83 SE3       29.79R
HALSTAD        NOT AVBL
FOSSTON        CLOUDY    77  66  69 S13       29.78S
BAUDETTE         N/A     71  66  84 N6        29.78S
WASKISH        CLOUDY    75  70  83 W5        29.79R
CROOKSTON      CLOUDY    73  70  88 SW9       29.80R
$$
  *****  WEATHER ACROSS CENTRAL AND WEST MINNESOTA  *****

CITY           SKY/WX    TMP DP  RH WIND       PRES   REMARKS
BEMIDJI        PTSUNNY   80  68  67 SW9G16    29.79R
PARK RAPIDS    MOSUNNY   84  66  54 SW13      29.80F
WADENA         MOSUNNY   82  64  54 S10       29.81S
DETROIT LAKES  PTSUNNY   81  64  57 SW10G17   29.80S
MOORHEAD       PTSUNNY   82  70  65 SW9       29.76R
FERGUS FALLS   SUNNY     81  66  61 SW10      29.78R
ELBOW LAKE     FAIR      81  67  62 S12       29.80S
MORRIS MN      MOSUNNY   82  66  57 S16       29.80R
STAPLES        SUNNY     81  63  54 S7        29.82F
WHEATON        MOSUNNY   82  66  57 S10       29.78S
$$
  *****  WEATHER ELSEWHERE ACROSS MINNESOTA  *****

CITY           SKY/WX    TMP DP  RH WIND       PRES   REMARKS
DULUTH         MOSUNNY   77  64  64 S13       29.88S
INTRNTL FALLS  CLOUDY    77  68  73 S3        29.79S
ELY            MOSUNNY   79  63  57 SW12G18   29.85S
CLOQUET        MOSUNNY   79  63  57 S9        29.87R
BRAINERD       MOSUNNY   81  64  56 SW10      29.84R
HIBBING        PTSUNNY   80  66  62 S10       29.84R
ALEXANDRIA     SUNNY     81  65  58 S8        29.84R
SAINT CLOUD    PTSUNNY   79  65  62 S14       29.86R
MINNEAPOLIS    CLOUDY    80  65  59 S15G22    29.87F
$$

  *****  WEATHER ACROSS SOUTH DAKOTA  *****

CITY           SKY/WX    TMP DP  RH WIND       PRES   REMARKS
SIOUX FALLS    MOSUNNY   82  69  64 S12G23    29.81F
BROOKINGS      MOSUNNY   81  66  61 S24       29.81S
WATERTOWN      MOSUNNY   83  65  54 S21G33    29.78F
HURON          SUNNY     85  71  63 S13       29.75S HX  90
SISSETON         N/A     86  65  49 SW12G23   29.76R
ABERDEEN       SUNNY     83  70  64 S15       29.76R
MITCHELL       SUNNY     85  69  58 S21G29    29.77S
PIERRE         PTSUNNY   83  69  62 NE3       29.77R
MOBRIDGE       CLOUDY    75  72  90 N13       29.81R
RAPID CITY     PTSUNNY   78  63  59 NE15      29.85R
$$

  *****  SOME WEATHER IN NEARBY STATES *****

CITY           SKY/WX    TMP DP  RH WIND       PRES   REMARKS
GLASGOW MT     PTSUNNY   70  49  47 N17G25    30.03R
GREAT FALLS MT LGT RAIN  51  50  96 N13       30.17R FOG
CHEYENNE WY    SUNNY     87  52  29 W8        30.03S
SCOTTSBLUFF NE SUNNY     86  61  42 S6        29.87S
OMAHA NE       CLOUDY    75  67  76 S3        29.92F
DES MOINES IA  CLOUDY    81  68  64 S13       29.98S
DAVENPORT IA   SUNNY     79  65  62 S9        30.05F
CHICAGO IL     MOSUNNY   80  60  50 S10       30.08S
EAU CLAIRE WI  MOSUNNY   80  63  55 S14       29.96S
LA CROSSE WI   MOSUNNY   81  65  58 S12       29.99S
$$

  *****  SOME NATIONAL WEATHER *****

CITY           SKY/WX    TMP DP  RH WIND       PRES   REMARKS
LA GUARDIA NY  PTSUNNY   81  60  48 VRB6      30.11F
RALEIGH NC     PTSUNNY   86  71  60 SW6       30.12S HX  91
ATLANTA GA     PTSUNNY   78  66  66 W10       30.15S
NEW ORLEANS LA CLOUDY    87  73  62 SW7       30.12F HX  94
OKLAHOMA CITY  MOSUNNY   88  73  61 S15       29.99S HX  95
ALBUQUERQUE NM PTSUNNY   79  56  45 VRB5      30.15F
SALT LAKE CITY CLOUDY    75  65  70 VRB6      30.05S
LOS ANGELES CA CLOUDY    65  60  84 W5        29.99S
BOISE ID       CLOUDY    82  53  36 N8        29.91R
SEATTLE WA     MOSUNNY   77  51  40 N9        29.86R
$$

*** WEATHER ACROSS MANITOBA...SASKATCHEWAN AND ONTARIO ***
                ***ONTARIO***

CITY           SKY/WX    TMP DP  RH WIND       PRES   REMARKS
GERALDTON      PTSUNNY   73  63  68 SW12      29.88F
THUNDER BAY    CLOUDY    66  57  72 NE10      29.88F
SIOUX LOOKOUT  LGT RAIN  73  64  73 S5        29.80S
TORONTO        MOSUNNY   77  61  57 SE9       30.12S
BIG TROUT LK   SUNNY     66  59  77 W10       29.69S HAZE
PICKLE LAKE    PTSUNNY   73  61  64 NW8       29.76F
DRYDEN         CLOUDY    73  63  68 S12       29.80F
KENORA         CLOUDY    70  64  83 S10       29.79S THUNDER
$$
                *** MANITOBA***

CITY           SKY/WX    TMP DP  RH WIND       PRES   REMARKS
BRANDON        CLOUDY    66  61  82 CALM      29.84R SMOKE
DAUPHIN        MOSUNNY   68  55  64 W6        29.83S HAZE
ISLAND LAKE    CLOUDY    63  59  88 W6        29.69F SMOKE
PILOT MOUND      N/A     66  63  88 N8          N/A
THE PAS        CLOUDY    57  45  62 NW16G24   29.85R
THOMPSON       LGT RAIN  46  41  81 NW13G25   29.76R
WINNIPEG       LGT RAIN  66  64  94 NE3       29.78S SMOKE
LYNN LAKE      LGT RAIN  46  43  87 N13G23    29.91R
CHURCHILL      LGT RAIN  41  39  93 NE30G40   29.72R FOG
GILLAM         DRIZZLE   48  43  81 NW17G24   29.67
$$
                ***SASKATCHEWAN***

CITY           SKY/WX    TMP DP  RH WIND       PRES   REMARKS
ESTEVAN        CLOUDY    66  57  72 NW16G23   29.92R SMOKE
KINDERSLEY     PTSUNNY   59  50  72 NW14      30.07R
LLOYDMINSTER   CLOUDY    55  48  76 NW9       30.08R
PRINCE ALBERT  CLOUDY    61  52  72 W13       29.97R SMOKE
REGINA         PTSUNNY   66  50  55 NW17G24   29.97S SMOKE


USA.gov is the U.S. government's official web portal to all federal, state and local government web resources and services.